GW3513 Weather Reports


Display with metric or nautical units.
time (UTC)temp
F
wind
direction
speed
MPH
gust
MPH
rain 1hr
in
rain 24hr
in
rain mn
in
humidity
%
barometer
mb
20260902010905 87 161 0.0 0.0 0.00 0.00 0.00 53 1018.3
20260902010359 87 161 0.0 0.0 0.00 0.00 0.00 52 1018.3
20260902005858 88 161 0.0 0.0 0.00 0.00 0.00 51 1018.2
20260902005352 89 161 0.0 0.0 0.00 0.00 0.00 50 1018.4
20260902004848 89 161 0.0 0.0 0.00 0.00 0.00 49 1018.3
20260902004342 90 161 0.0 0.0 0.00 0.00 0.00 48 1018.1
20260902003838 90 161 0.0 0.0 0.00 0.00 0.00 48 1018.2
20260902003333 91 161 0.0 0.0 0.00 0.00 0.00 47 1018.4
20260902002828 92 161 0.0 0.0 0.00 0.00 0.00 47 1018.2
20260902002322 92 161 0.0 0.0 0.00 0.00 0.00 46 1018.5
20260902001817 92 161 0.0 0.0 0.00 0.00 0.00 46 1018.4
20260902001312 92 161 0.0 0.0 0.00 0.00 0.00 46 1018.4
20260902000807 92 161 0.0 0.0 0.00 0.00 0.00 47 1018.5
20260902000301 93 161 0.0 0.0 0.00 0.00 0.00 46 1018.6
20260901235756 93 161 0.0 0.0 0.00 0.00 0.00 45 1018.5
20260901235251 94 161 0.0 0.0 0.00 0.00 0.00 44 1018.6
20260901234750 94 161 0.0 0.0 0.00 0.00 0.00 43 1018.6
20260901234245 95 161 0.0 0.0 0.00 0.00 0.00 43 1018.6
20260901233734 95 161 0.0 0.0 0.00 0.00 0.00 42 1018.7
20260901233230 95 161 0.0 0.0 0.00 0.00 0.00 42 1018.6
20260901232725 96 161 0.0 0.0 0.00 0.00 0.00 41 1018.9
20260901232220 96 161 0.0 0.0 0.00 0.00 0.00 41 1018.7
20260901231716 96 161 0.0 0.0 0.00 0.00 0.00 40 1018.7
20260901231212 98 161 0.0 0.0 0.00 0.00 0.00 40 1018.7
20260901230708 98 161 0.0 0.0 0.00 0.00 0.00 39 1018.6
20260901230207 99 161 0.0 0.0 0.00 0.00 0.00 38 1018.7
20260901225702 100 161 0.0 0.0 0.00 0.00 0.00 36 1018.9
20260901225157 100 161 0.0 0.0 0.00 0.00 0.00 36 1018.9
20260901224654 100 161 0.0 0.0 0.00 0.00 0.00 36 1018.6
20260901224149 101 161 0.0 0.0 0.00 0.00 0.00 35 1018.5
20260901223645 102 161 0.0 0.0 0.00 0.00 0.00 34 1018.5
20260901223140 104 161 0.0 0.0 0.00 0.00 0.00 32 1018.5
20260901222636 107 161 0.0 0.0 0.00 0.00 0.00 31 1018.4
20260901222132 108 161 0.0 0.0 0.00 0.00 0.00 29 1018.6
20260901221628 113 161 0.0 0.0 0.00 0.00 0.00 27 1018.4
20260901221123 114 161 0.0 0.0 0.00 0.00 0.00 25 1018.4
20260901220622 114 162 0.0 0.0 0.00 0.00 0.00 26 1018.6
20260901220121 115 162 0.0 0.0 0.00 0.00 0.00 25 1018.5
20260901215620 116 161 0.0 0.0 0.00 0.00 0.00 25 1018.6
20260901215114 115 162 0.0 0.0 0.00 0.00 0.00 25 1018.5
20260901214612 113 161 0.0 0.0 0.00 0.00 0.00 27 1018.5
20260901214106 114 161 0.0 0.0 0.00 0.00 0.00 26 1018.7
20260901213601 118 162 0.0 0.0 0.00 0.00 0.00 24 1018.6
20260901213055 123 162 0.0 0.0 0.00 0.00 0.00 22 1018.7
20260901212550 120 162 0.0 0.0 0.00 0.00 0.00 23 1018.7
20260901212046 116 162 0.0 0.0 0.00 0.00 0.00 25 1018.9
20260901211541 115 161 0.0 0.0 0.00 0.00 0.00 26 1018.9
20260901211038 119 162 0.0 0.0 0.00 0.00 0.00 23 1019.1
20260901210533 120 162 0.0 0.0 0.00 0.00 0.00 23 1019.2
20260901210029 117 162 0.0 0.0 0.00 0.00 0.00 24 1019.2
20260901205523 117 162 0.0 0.0 0.00 0.00 0.00 24 1019.4
20260901205018 119 162 0.0 0.0 0.00 0.00 0.00 23 1019.4
20260901204515 122 162 0.0 0.0 0.00 0.00 0.00 22 1019.3
20260901204009 125 162 0.0 0.0 0.00 0.00 0.00 20 1019.4
20260901203503 126 162 0.0 0.0 0.00 0.00 0.00 21 1019.3
20260901202958 122 161 0.0 0.0 0.00 0.00 0.00 22 1019.3
20260901202453 118 161 0.0 0.0 0.00 0.00 0.00 24 1019.5
20260901201943 115 161 0.0 0.0 0.00 0.00 0.00 26 1019.6
20260901201438 117 161 0.0 0.0 0.00 0.00 0.00 24 1019.5
20260901200932 118 162 0.0 0.0 0.00 0.00 0.00 25 1019.6
20260901200427 120 162 0.0 0.0 0.00 0.00 0.00 23 1019.7
20260901195925 120 161 0.0 0.0 0.00 0.00 0.00 24 1019.6
20260901195419 120 161 0.0 0.0 0.00 0.00 0.00 24 1020.0
20260901194914 118 161 0.0 0.0 0.00 0.00 0.00 24 1019.8
20260901194408 114 161 0.0 0.0 0.00 0.00 0.00 26 1019.7
20260901193905 112 161 0.0 0.0 0.00 0.00 0.00 29 1019.9
20260901193404 113 161 0.0 0.0 0.00 0.00 0.00 28 1019.9
20260901192904 113 161 0.0 0.0 0.00 0.00 0.00 27 1020.0
20260901192400 111 161 0.0 0.0 0.00 0.00 0.00 29 1020.0
20260901191856 111 161 0.0 0.0 0.00 0.00 0.00 28 1020.0
20260901191350 110 161 0.0 0.0 0.00 0.00 0.00 29 1020.1
20260901190848 107 161 0.0 0.0 0.00 0.00 0.00 31 1020.2
20260901190347 109 161 0.0 0.0 0.00 0.00 0.00 30 1020.1
20260901185845 108 161 0.0 0.0 0.00 0.00 0.00 30 1020.3
20260901185344 109 161 0.0 0.0 0.00 0.00 0.00 29 1020.3
20260901184841 112 161 0.0 0.0 0.00 0.00 0.00 26 1020.5
20260901184335 109 161 0.0 0.0 0.00 0.00 0.00 29 1020.5
20260901183831 109 161 0.0 0.0 0.00 0.00 0.00 32 1020.7
20260901183330 113 161 0.0 0.0 0.00 0.00 0.00 29 1020.7
20260901182826 113 161 0.0 0.0 0.00 0.00 0.00 27 1020.5
20260901182326 109 161 0.0 0.0 0.00 0.00 0.00 31 1020.8
20260901181821 109 161 0.0 0.0 0.00 0.00 0.00 29 1021.0
20260901181315 111 161 0.0 0.0 0.00 0.00 0.00 30 1020.9
20260901180809 110 161 0.0 0.0 0.00 0.00 0.00 29 1020.9
20260901180308 110 161 0.0 0.0 0.00 0.00 0.00 30 1021.3
20260901175807 109 161 0.0 0.0 0.00 0.00 0.00 30 1021.2
20260901175305 109 161 0.0 0.0 0.00 0.00 0.00 30 1021.2
20260901174757 106 161 0.0 0.0 0.00 0.00 0.00 31 1021.2
20260901174253 109 161 0.0 0.0 0.00 0.00 0.00 31 1021.4
20260901173748 114 161 0.0 0.0 0.00 0.00 0.00 29 1021.4
20260901173243 113 161 0.0 0.0 0.00 0.00 0.00 28 1021.4
20260901172740 109 161 0.0 0.0 0.00 0.00 0.00 31 1021.7
20260901172238 111 161 0.0 0.0 0.00 0.00 0.00 30 1021.6
20260901171736 110 161 0.0 0.0 0.00 0.00 0.00 31 1021.9
20260901171236 109 161 0.0 0.0 0.00 0.00 0.00 30 1021.8
20260901170735 107 161 0.0 0.0 0.00 0.00 0.00 34 1022.0
20260901170230 107 161 0.0 0.0 0.00 0.00 0.00 33 1022.0
20260901165728 107 161 0.0 0.0 0.00 0.00 0.00 34 1021.9
20260901165223 106 161 0.0 0.0 0.00 0.00 0.00 35 1022.0
20260901164720 104 161 0.0 0.0 0.00 0.00 0.00 35 1022.0
20260901164215 104 161 0.0 0.0 0.00 0.00 0.00 36 1022.1
20260901163710 102 161 0.0 0.0 0.00 0.00 0.00 37 1022.1
20260901163209 103 162 0.0 0.0 0.00 0.00 0.00 37 1022.1
20260901162705 102 162 0.0 0.0 0.00 0.00 0.00 38 1022.3
20260901162204 101 161 0.0 0.0 0.00 0.00 0.00 39 1022.2
20260901161702 102 161 0.0 0.0 0.00 0.00 0.00 38 1022.2
20260901161157 102 162 0.0 0.0 0.00 0.00 0.00 39 1022.2
20260901160654 102 161 0.0 0.0 0.00 0.00 0.00 38 1022.4
20260901160148 101 162 0.0 0.0 0.00 0.00 0.00 39 1022.2
20260901155648 100 162 0.0 0.0 0.00 0.00 0.00 41 1022.1
20260901155143 100 161 0.0 0.0 0.00 0.00 0.00 40 1022.2
20260901154638 101 161 0.0 0.0 0.00 0.00 0.00 41 1022.2
20260901154133 100 162 0.0 0.0 0.00 0.00 0.00 40 1022.3
20260901153628 100 162 0.0 0.0 0.00 0.00 0.00 41 1022.2
20260901153127 100 162 0.0 0.0 0.00 0.00 0.00 42 1022.1
20260901152622 98 162 0.0 0.0 0.00 0.00 0.00 43 1022.4
20260901152120 98 162 0.0 0.0 0.00 0.00 0.00 44 1022.0
20260901151617 97 162 0.0 0.0 0.00 0.00 0.00 44 1022.2
20260901151116 97 162 0.0 0.0 0.00 0.00 0.00 44 1022.3
20260901150615 98 162 0.0 0.0 0.00 0.00 0.00 43 1022.3
20260901150108 97 162 0.0 0.0 0.00 0.00 0.00 44 1022.2
20260901145607 97 162 0.0 0.0 0.00 0.00 0.00 46 1022.4
20260901145106 95 162 0.0 0.0 0.00 0.00 0.00 48 1022.2
20260901144602 93 162 0.0 0.0 0.00 0.00 0.00 50 1022.2
20260901144056 93 162 0.0 0.0 0.00 0.00 0.00 49 1022.3
20260901143552 92 162 0.0 0.0 0.00 0.00 0.00 51 1022.2
20260901143048 91 162 0.0 0.0 0.00 0.00 0.00 53 1022.3
20260901142543 89 162 0.0 0.0 0.00 0.00 0.00 56 1022.3
20260901142038 89 162 0.0 0.0 0.00 0.00 0.00 57 1022.4
20260901141538 87 162 0.0 0.0 0.00 0.00 0.00 60 1022.5
20260901141027 86 162 0.0 0.0 0.00 0.00 0.00 60 1022.5
20260901140526 86 162 0.0 0.0 0.00 0.00 0.00 61 1022.4
20260901140021 86 162 0.0 0.0 0.00 0.00 0.00 59 1022.5
20260901135520 85 162 0.0 0.0 0.00 0.00 0.00 62 1022.5
20260901135016 84 162 0.0 0.0 0.00 0.00 0.00 65 1022.4
20260901134512 83 162 0.0 0.0 0.00 0.00 0.00 67 1022.5
20260901134006 82 162 0.0 0.0 0.00 0.00 0.00 69 1022.4
20260901133505 82 162 0.0 0.0 0.00 0.00 0.00 69 1022.3
20260901133003 81 162 0.0 0.0 0.00 0.00 0.00 71 1022.3
20260901132457 80 162 0.0 0.0 0.00 0.00 0.00 73 1022.4
20260901131956 79 162 0.0 0.0 0.00 0.00 0.00 75 1022.3
20260901131451 78 162 0.0 0.0 0.00 0.00 0.00 75 1022.3
20260901130947 77 162 0.0 0.0 0.00 0.00 0.00 76 1022.4
20260901130441 76 162 0.0 0.0 0.00 0.00 0.00 79 1022.3
20260901125938 75 162 0.0 0.0 0.00 0.00 0.00 81 1022.5
20260901125432 74 162 0.0 0.0 0.00 0.00 0.00 82 1022.3
20260901124927 73 162 0.0 0.0 0.00 0.00 0.00 84 1022.3
20260901124422 73 162 0.0 0.0 0.00 0.00 0.00 84 1022.3
20260901123917 72 162 0.0 0.0 0.00 0.00 0.00 85 1022.3
20260901123412 72 162 0.0 0.0 0.00 0.00 0.00 85 1022.1
20260901122910 72 162 0.0 0.0 0.00 0.00 0.00 85 1022.0
20260901122405 71 162 0.0 0.0 0.00 0.00 0.00 85 1022.1
20260901121904 71 162 0.0 0.0 0.00 0.00 0.00 85 1021.8
20260901121359 71 161 0.0 0.0 0.00 0.00 0.00 86 1021.7
20260901120854 71 161 0.0 0.0 0.00 0.00 0.00 86 1021.7
20260901120349 70 161 0.0 0.0 0.00 0.00 0.00 86 1021.6
20260901115845 70 161 0.0 0.0 0.00 0.00 0.00 86 1021.6
20260901115344 70 161 0.0 0.0 0.00 0.00 0.00 86 1021.6
20260901114843 70 161 0.0 0.0 0.00 0.00 0.00 86 1021.3
20260901114338 70 161 0.0 0.0 0.00 0.00 0.00 86 1021.2
20260901113836 70 161 0.0 0.0 0.00 0.00 0.00 85 1021.3
20260901113335 70 161 0.0 0.0 0.00 0.00 0.00 85 1021.1
20260901112831 70 161 0.0 0.0 0.00 0.00 0.00 85 1021.1
20260901112330 70 161 0.0 0.0 0.00 0.00 0.00 85 1021.0
20260901111825 70 161 0.0 0.0 0.00 0.00 0.00 84 1021.0
20260901111323 71 161 0.0 0.0 0.00 0.00 0.00 84 1021.1
20260901110823 71 160 0.0 0.0 0.00 0.00 0.00 84 1021.0
20260901110318 71 161 0.0 0.0 0.00 0.00 0.00 83 1020.9
20260901105815 71 161 0.0 0.0 0.00 0.00 0.00 82 1020.9
20260901105314 71 161 0.0 0.0 0.00 0.00 0.00 82 1021.0
20260901104811 72 161 0.0 0.0 0.00 0.00 0.00 81 1021.0
20260901104305 72 161 0.0 0.0 0.00 0.00 0.00 81 1021.1
20260901103800 72 161 0.0 0.0 0.00 0.00 0.00 81 1020.9
20260901103255 72 161 0.0 0.0 0.00 0.00 0.00 80 1021.0
20260901102750 72 160 0.0 0.0 0.00 0.00 0.00 80 1020.9
20260901102250 72 161 0.0 0.0 0.00 0.00 0.00 80 1020.8
20260901101746 72 161 0.0 0.0 0.00 0.00 0.00 79 1020.9
20260901101246 73 160 0.0 0.0 0.00 0.00 0.00 79 1020.8
20260901100745 73 160 0.0 0.0 0.00 0.00 0.00 79 1020.9
20260901100240 73 160 0.0 0.0 0.00 0.00 0.00 79 1020.8
20260901095738 73 160 0.0 0.0 0.00 0.00 0.00 78 1020.9
20260901095236 73 161 0.0 0.0 0.00 0.00 0.00 78 1020.7
20260901094731 73 161 0.0 0.0 0.00 0.00 0.00 78 1020.5
20260901094226 73 161 0.0 0.0 0.00 0.00 0.00 78 1020.7
20260901093721 73 161 0.0 0.0 0.00 0.00 0.00 78 1020.7
20260901093219 73 161 0.0 0.0 0.00 0.00 0.00 78 1020.6
20260901092716 73 161 0.0 0.0 0.00 0.00 0.00 77 1020.6
20260901092212 73 161 0.0 0.0 0.00 0.00 0.00 77 1020.5
20260901091707 73 161 0.0 0.0 0.00 0.00 0.00 77 1020.6
20260901091202 73 161 0.0 0.0 0.00 0.00 0.00 77 1020.6
20260901090656 73 161 0.0 0.0 0.00 0.00 0.00 77 1020.8
20260901090152 73 161 0.0 0.0 0.00 0.00 0.00 76 1020.5
20260901085648 73 161 0.0 0.0 0.00 0.00 0.00 76 1020.5
20260901085143 73 161 0.0 0.0 0.00 0.00 0.00 76 1020.4
20260901084639 73 161 0.0 0.0 0.00 0.00 0.00 76 1020.7
20260901084136 73 161 0.0 0.0 0.00 0.00 0.00 75 1020.6
20260901083635 73 161 0.0 0.0 0.00 0.00 0.00 75 1020.3
20260901083134 73 161 0.0 0.0 0.00 0.00 0.00 75 1020.5
20260901082628 73 161 0.0 0.0 0.00 0.00 0.00 75 1020.5
20260901082124 73 161 0.0 0.0 0.00 0.00 0.00 75 1020.4
20260901081619 73 161 0.0 0.0 0.00 0.00 0.00 74 1020.3
20260901081114 73 161 0.0 0.0 0.00 0.00 0.00 74 1020.5
20260901080608 74 161 0.0 0.0 0.00 0.00 0.00 74 1020.2
20260901080107 74 161 0.0 0.0 0.00 0.00 0.00 74 1020.4
20260901075603 74 161 0.0 0.0 0.00 0.00 0.00 73 1020.3
20260901075102 74 161 0.0 0.0 0.00 0.00 0.00 72 1020.5
20260901074601 74 161 0.0 0.0 0.00 0.00 0.00 72 1020.5
20260901074057 75 161 0.0 0.0 0.00 0.00 0.00 72 1020.3
20260901073553 75 161 0.0 0.0 0.00 0.00 0.00 72 1020.5
20260901073048 74 161 0.0 0.0 0.00 0.00 0.00 72 1020.3
20260901072543 74 161 0.0 0.0 0.00 0.00 0.00 72 1020.5
20260901072038 75 161 0.0 0.0 0.00 0.00 0.00 72 1020.1
20260901071538 75 161 0.0 0.0 0.00 0.00 0.00 72 1020.4
20260901071036 75 161 0.0 0.0 0.00 0.00 0.00 72 1020.4
20260901070532 75 161 0.0 0.0 0.00 0.00 0.00 72 1020.4
20260901070027 75 161 0.0 0.0 0.00 0.00 0.00 72 1020.3
20260901065521 75 161 0.0 0.0 0.00 0.00 0.00 72 1020.4
20260901065016 75 161 0.0 0.0 0.00 0.00 0.00 72 1020.3
20260901064512 75 161 0.0 0.0 0.00 0.00 0.00 72 1020.4
20260901064009 75 161 0.0 0.0 0.00 0.00 0.00 71 1020.3
20260901063506 75 161 0.0 0.0 0.00 0.00 0.00 71 1020.6
20260901063001 75 161 0.0 0.0 0.00 0.00 0.00 71 1020.4
20260901062457 75 161 0.0 0.0 0.00 0.00 0.00 71 1020.4
20260901061953 76 161 0.0 0.0 0.00 0.00 0.00 71 1020.6
20260901061448 75 161 0.0 0.0 0.00 0.00 0.00 70 1020.4
20260901060943 75 161 0.0 0.0 0.00 0.00 0.00 71 1020.2
20260901060438 76 161 0.0 0.0 0.00 0.00 0.00 70 1020.4
20260901055937 76 161 0.0 0.0 0.00 0.00 0.00 69 1020.5
20260901055434 76 161 0.0 0.0 0.00 0.00 0.00 69 1020.3
20260901054930 77 161 0.0 0.0 0.00 0.00 0.00 68 1020.6
20260901054428 77 161 0.0 0.0 0.00 0.00 0.00 68 1020.3
20260901053923 77 161 0.0 0.0 0.00 0.00 0.00 67 1020.3
20260901053418 77 161 0.0 0.0 0.00 0.00 0.00 67 1020.3
20260901052914 78 161 0.0 0.0 0.00 0.00 0.00 67 1020.3
20260901052409 78 161 0.0 0.0 0.00 0.00 0.00 66 1020.2
20260901051908 78 161 0.0 0.0 0.00 0.00 0.00 65 1020.2
20260901051403 78 161 0.0 0.0 0.00 0.00 0.00 65 1020.1
20260901050858 78 161 0.0 0.0 0.00 0.00 0.00 65 1020.0
20260901050354 79 161 0.0 0.0 0.00 0.00 0.00 64 1020.1
20260901045848 79 161 0.0 0.0 0.00 0.00 0.00 64 1020.0
20260901045348 80 161 0.0 0.0 0.00 0.00 0.00 63 1020.1
20260901044843 80 161 0.0 0.0 0.00 0.00 0.00 62 1020.0
20260901044340 80 161 0.0 0.0 0.00 0.00 0.00 62 1020.1
20260901043835 80 161 0.0 0.0 0.00 0.00 0.00 61 1020.0
20260901043331 81 161 0.0 0.0 0.00 0.00 0.00 60 1020.1
20260901042830 81 161 0.0 0.0 0.00 0.00 0.00 60 1020.0
20260901042325 81 161 0.0 0.0 0.00 0.00 0.00 60 1020.0
20260901041820 81 161 0.0 0.0 0.00 0.00 0.00 60 1020.0
20260901041316 81 161 0.0 0.0 0.00 0.00 0.00 60 1020.0
20260901040810 81 161 0.0 0.0 0.00 0.00 0.00 59 1019.9
20260901040309 81 161 0.0 0.0 0.00 0.00 0.00 59 1020.0
20260901035809 81 161 0.0 0.0 0.00 0.00 0.00 59 1020.1
20260901035307 82 161 0.0 0.0 0.00 0.00 0.00 59 1020.0
20260901034806 82 161 0.0 0.0 0.00 0.00 0.00 59 1020.0
20260901034301 82 161 0.0 0.0 0.00 0.00 0.00 58 1020.1
20260901033756 82 161 0.0 0.0 0.00 0.00 0.00 58 1020.2
20260901033255 82 161 0.0 0.0 0.00 0.00 0.00 57 1020.1
20260901032753 83 161 0.0 0.0 0.00 0.00 0.00 57 1020.1
20260901032248 82 161 0.0 0.0 0.00 0.00 0.00 57 1020.0
20260901031743 82 161 0.0 0.0 0.00 0.00 0.00 57 1020.1
20260901031239 82 161 0.0 0.0 0.00 0.00 0.00 57 1020.0
20260901030733 82 161 0.0 0.0 0.00 0.00 0.00 56 1020.0
20260901030228 82 161 0.0 0.0 0.00 0.00 0.00 56 1020.1
20260901025722 82 161 0.0 0.0 0.00 0.00 0.00 56 1019.9
20260901025217 82 161 0.0 0.0 0.00 0.00 0.00 56 1019.9
20260901024712 82 161 0.0 0.0 0.00 0.00 0.00 56 1019.9
20260901024211 82 161 0.0 0.0 0.00 0.00 0.00 55 1019.7
20260901023709 83 161 0.0 0.0 0.00 0.00 0.00 55 1019.9
20260901023204 83 161 0.0 0.0 0.00 0.00 0.00 55 1019.8
20260901022700 83 161 0.0 0.0 0.00 0.00 0.00 55 1019.7
20260901022155 83 161 0.0 0.0 0.00 0.00 0.00 55 1019.6
20260901021650 83 161 0.0 0.0 0.00 0.00 0.00 54 1019.6
20260901021145 83 161 0.0 0.0 0.00 0.00 0.00 54 1019.5
20260901020641 83 161 0.0 0.0 0.00 0.00 0.00 54 1019.2
20260901020136 83 161 0.0 0.0 0.00 0.00 0.00 54 1019.3
20260901015632 84 161 0.0 0.0 0.00 0.00 0.00 54 1019.2
20260901015131 84 161 0.0 0.0 0.00 0.00 0.00 53 1019.2
20260901014626 85 161 0.0 0.0 0.00 0.00 0.00 53 1019.0
20260901014122 85 161 0.0 0.0 0.00 0.00 0.00 52 1019.0
20260901013618 86 161 0.0 0.0 0.00 0.00 0.00 51 1018.9
20260901013113 86 161 0.0 0.0 0.00 0.00 0.00 51 1019.0
20260901012613 86 161 0.0 0.0 0.00 0.00 0.00 50 1019.1
20260901012108 86 161 0.0 0.0 0.00 0.00 0.00 50 1018.7
20260901011605 86 161 0.0 0.0 0.00 0.00 0.00 49 1019.1
20260901011102 87 161 0.0 0.0 0.00 0.00 0.00 49 1018.7